DW7779 Weather Reports


time (UTC)temp
F
wind
direction
speed
knots
gust
knots
rain 1hr
in
rain 24hr
in
rain mn
in
humidity
%
barometer
mb
20260901010033 68 1.7 7.8 0.00 0.01 0.01 58 1015.9
20260901004513 67 5.2 10.4 0.00 0.01 0.01 59 1016.2
20260901003007 66 3.5 8.7 0.00 0.01 0.01 64 1016.2
20260901001503 64 3.5 7.0 0.00 0.01 0.01 71 1016.4
20260901000058 61 5.2 11.3 0.00 0.01 0.01 86 1016.8
20260831234553 58 2.6 6.1 0.00 0.01 0.01 95 1017.0
20260831233050 57 0.0 3.5 0.00 0.01 0.01 98 1017.0
20260831231559 57 0.0 2.6 0.00 0.01 0.01 98 1017.4
20260831230048 56 0.0 2.6 0.00 0.01 0.01 98 1017.7
20260831224540 54 0.0 1.7 0.00 0.01 0.01 98 1018.1
20260831223041 53 0.0 1.7 0.00 0.01 0.01 98 1018.4
20260831221533 52 0.0 0.9 0.00 0.01 0.01 98 1018.7
20260831220029 50 0.0 1.7 0.00 0.01 0.01 98 1018.9
20260831214523 48 0.0 0.0 0.01 0.01 0.01 98 1019.1
20260831213031 47 0.0 0.0 0.01 0.01 0.01 98 1019.3
20260831211521 46 0.0 0.0 0.01 0.01 0.01 98 1019.3
20260831210020 46 0.0 0.0 0.01 0.01 0.01 98 1019.4
20260831204519 46 0.0 0.0 0.00 0.00 0.00 98 1019.4
20260831203018 46 0.0 0.0 0.00 0.00 0.00 98 1019.3
20260831201524 46 0.0 0.0 0.00 0.00 0.00 98 1019.3
20260831200021 46 0.0 0.0 0.00 0.00 0.00 98 1019.6
20260831194514 46 0.0 0.0 0.00 0.00 0.00 98 1019.7
20260831193012 45 0.0 0.0 0.00 0.00 0.00 98 1019.6
20260831191509 44 0.0 0.0 0.00 0.00 0.00 98 1019.9
20260831190010 45 0.0 0.0 0.00 0.00 0.00 98 1020.0
20260831184510 45 0.0 0.0 0.00 0.00 0.00 98 1020.0
20260831183005 44 0.0 0.0 0.00 0.00 0.00 97 1020.1
20260831181503 44 0.0 0.0 0.00 0.00 0.00 97 1020.4
20260831180002 43 0.0 0.0 0.00 0.00 0.00 97 1020.3
20260831174604 43 0.0 0.0 0.00 0.00 0.00 97 1020.5
20260831173059 43 0.0 0.0 0.00 0.00 0.00 97 1020.7
20260831171600 42 0.0 0.0 0.00 0.00 0.00 97 1020.9
20260831170057 41 0.0 0.0 0.00 0.00 0.00 97 1021.1
20260831164551 42 0.0 0.0 0.00 0.00 0.00 97 1021.4
20260831163050 43 0.0 0.0 0.00 0.00 0.00 97 1021.7
20260831161551 43 0.0 0.0 0.00 0.00 0.00 97 1021.9
20260831160046 42 0.0 0.0 0.00 0.00 0.00 97 1022.1
20260831154545 43 0.0 0.0 0.00 0.00 0.00 97 1022.4
20260831153043 43 0.0 0.0 0.00 0.00 0.00 96 1022.5
20260831151539 43 0.0 0.0 0.00 0.00 0.00 96 1022.6
20260831150036 44 0.0 0.0 0.00 0.00 0.00 96 1022.8
20260831144539 44 0.0 0.9 0.00 0.00 0.00 96 1022.9
20260831143034 45 0.0 0.0 0.00 0.00 0.00 96 1023.0
20260831141530 45 0.0 0.0 0.00 0.00 0.00 96 1023.2
20260831140026 44 0.0 0.0 0.00 0.00 0.00 95 1023.3
20260831134524 45 0.0 0.0 0.00 0.00 0.00 95 1023.8
20260831133019 45 0.0 0.0 0.00 0.00 0.00 95 1024.1
20260831131518 46 0.0 0.0 0.00 0.00 0.00 95 1024.3
20260831130014 47 0.0 0.0 0.00 0.00 0.00 94 1024.5
20260831124515 48 0.0 0.0 0.00 0.00 0.00 94 1024.8
20260831123010 48 0.0 0.0 0.00 0.00 0.00 94 1024.8
20260831121509 49 0.0 0.0 0.00 0.00 0.00 93 1025.0
20260831120011 49 0.0 0.0 0.00 0.00 0.00 94 1025.1
20260831114509 49 0.0 0.0 0.00 0.00 0.00 94 1025.2
20260831113008 49 0.0 0.0 0.00 0.00 0.00 95 1025.3
20260831111505 48 0.0 0.0 0.00 0.00 0.00 95 1025.4
20260831110003 47 0.0 0.0 0.00 0.00 0.00 95 1025.5
20260831104505 47 0.0 0.0 0.00 0.00 0.00 94 1025.5
20260831103059 47 0.0 0.0 0.00 0.00 0.00 94 1025.6
20260831103000 47 0.0 0.0 0.00 0.00 0.00 94 1025.6
20260831101600 48 0.0 0.0 0.00 0.00 0.00 93 1025.7
20260831100119 49 0.0 0.0 0.00 0.00 0.00 92 1025.8
20260831094557 50 0.0 0.0 0.00 0.00 0.00 92 1025.9
20260831093056 51 0.0 0.0 0.00 0.00 0.00 91 1026.0
20260831091601 52 0.0 0.0 0.00 0.00 0.00 91 1026.0
20260831090055 52 0.0 0.0 0.00 0.00 0.00 90 1026.1
20260831084632 53 0.0 0.0 0.00 0.00 0.00 89 1026.0
20260831083054 53 0.0 0.0 0.00 0.00 0.00 88 1026.1
20260831081552 54 0.0 0.0 0.00 0.00 0.00 87 1026.1
20260831080105 55 0.0 0.0 0.00 0.00 0.00 85 1026.3
20260831074600 57 0.0 0.0 0.00 0.00 0.00 83 1026.1
20260831073052 58 0.0 0.0 0.00 0.00 0.00 81 1026.1
20260831071600 60 0.0 0.9 0.00 0.00 0.00 78 1026.1
20260831070047 62 0.0 0.9 0.00 0.00 0.00 73 1026.2
20260831064541 63 0.0 0.9 0.00 0.00 0.00 70 1026.4
20260831063041 63 0.0 0.9 0.00 0.00 0.00 71 1026.6
20260831061544 63 0.0 0.9 0.00 0.00 0.00 70 1026.5
20260831060054 64 0.0 1.7 0.00 0.00 0.00 68 1026.7
20260831054535 63 0.0 2.6 0.00 0.00 0.00 70 1026.9
20260831053036 64 0.0 1.7 0.00 0.00 0.00 65 1027.2
20260831051529 65 0.0 2.6 0.00 0.00 0.00 65 1027.4
20260831050029 63 0.0 1.7 0.00 0.00 0.00 69 1027.4
20260831044523 61 0.0 2.6 0.00 0.00 0.00 71 1027.6
20260831043028 62 0.9 3.5 0.00 0.00 0.00 73 1027.9
20260831041518 62 0.0 2.6 0.00 0.00 0.00 72 1028.1
20260831040015 63 0.0 1.7 0.00 0.00 0.00 69 1028.4
20260831034511 62 0.0 3.5 0.00 0.00 0.00 69 1028.6
20260831033008 61 0.9 3.5 0.00 0.00 0.00 71 1029.0
20260831031513 61 0.9 3.5 0.00 0.00 0.00 70 1029.2
20260831030003 60 0.0 3.5 0.00 0.00 0.00 72 1029.5
20260831024605 59 0.0 2.6 0.00 0.00 0.00 76 1029.7
20260831023057 57 1.7 4.3 0.00 0.00 0.00 76 1029.9
20260831021554 57 0.0 3.5 0.00 0.00 0.00 77 1030.2
20260831020051 56 0.0 3.5 0.00 0.00 0.00 78 1030.6
20260831014557 55 0.9 3.5 0.00 0.00 0.00 79 1030.7
20260831013053 54 0.0 3.5 0.00 0.00 0.00 83 1031.1
20260831011546 53 0.0 1.7 0.00 0.00 0.00 82 1031.5